Regional Weather Roundup
Issued by NWS

Home | Current Version | Previous Version | Graphics & Text | Print | Product List | Glossary Off
Versions: 1 2 3 4 5 6 7 8 9 10 11 12 13 14 15 16 17 18 19 20 21 22 23 24 25 26 27 28 29 30 31 32 33 34 35 36 37 38 39 40 41 42 43 44 45 46 47 48 49 50

000
ASUS43 KMKX 020128
RWRWI

WISCONSIN REGIONAL WEATHER ROUNDUP
NATIONAL WEATHER SERVICE MILWAUKEE/SULLIVAN WI
800 PM CDT MON JUN 01 2015

NOTE: "FAIR" INDICATES FEW OR NO CLOUDS BELOW 12,000 FEET WITH NO
SIGNIFICANT WEATHER AND/OR OBSTRUCTIONS TO VISIBILITY.

WIZ001-002-006>008-014>016-023>028-020200-
NORTHWEST WISCONSIN

CITY           SKY/WX    TMP DP  RH WIND       PRES   REMARKS
SUPERIOR ARPT  PTCLDY    43  33  65 NE8       30.18F
ASHLAND        PTCLDY    49  40  71 N6        30.19F
HAYWARD        PTCLDY    65  39  38 SE8       30.17S
SIREN          PTCLDY    65  40  39 S6        30.15S
CUMBERLAND     CLEAR     63  41  45 SE8       30.16S
RICE LAKE      CLEAR     65  39  39 SE7       30.17F
CHETEK         CLEAR     63  43  46 E6        30.17S
LADYSMITH      CLEAR     64  42  46 SE6       30.20S
EAU CLAIRE     PTCLDY    65  40  39 S8        30.16S
MENOMONIE      PTCLDY    65  41  41 SE7       30.16F
NEW RICHMOND   MOCLDY    64  40  41 S7        30.16S
OSCEOLA        PTCLDY    66  39  36 S9        30.17S
$$

WIZ003>005-009-010-017-018-020200-
NORTH CENTRAL WISCONSIN

CITY           SKY/WX    TMP DP  RH WIND       PRES   REMARKS
MANITOWISH WTR CLEAR     61  35  37 S5        30.19R
ARBOR VITAE    CLEAR     62  33  34 S6        30.20S
WOODRUFF       CLEAR     62  33  34 S6        30.20S
RHINELANDER    CLEAR     61  32  33 SE7       30.22R
EAGLE RIVER    CLEAR     61  25  25 S5        30.20S
LAND O LAKES   CLEAR     63  25  23 S3        30.21R
PHILLIPS       PTCLDY    62  40  44 S8        30.19S
TOMAHAWK       CLEAR     58  36  43 CALM      30.21S
MEDFORD        CLEAR     58  41  52 SE3       30.20S
MERRILL        CLEAR     60  38  43 SE3       30.22R
$$

WIZ029-030-035-036-043>047-020200-
CENTRAL WISCONSIN

CITY           SKY/WX    TMP DP  RH WIND       PRES   REMARKS
WAUSAU         CLEAR     61  36  39 SE9       30.19S
MOSINEE        CLEAR     59  36  41 SE5       30.22S
MARSHFIELD     CLEAR     61  36  39 SE7       30.20S
STEVENS POINT  CLEAR     59  35  40 SE6       30.21S
WAUPACA        CLEAR     62  38  41 E6        30.22S
WAUTOMA        CLEAR     62  34  35 E3        30.22S
WISC RAPIDS    CLEAR     61  32  33 SE6       30.21S
CAMP DOUGLAS   PTCLDY    61  41  48 SE6       30.19R
$$

WIZ011>013-019>022-031-037>040-048>050-020200-
NORTHEAST WISCONSIN

CITY           SKY/WX    TMP DP  RH WIND       PRES   REMARKS
ANTIGO         CLEAR     56  41  58 SE7       30.22S
SHAWANO        CLEAR     59  39  47 E6        30.23S HAZE
OCONTO         CLEAR     56  38  50 CALM      30.22F
STURGEON BAY   CLEAR     55  32  41 NE5       30.25F
GREEN BAY      CLEAR     58  41  53 NE9       30.23S
MANITOWOC      CLEAR     55  35  47 NE3       30.24S
APPLETON       CLEAR     61  30  31 E6        30.22F
CLINTONVILLE   CLEAR     59  37  44 E3        30.22S
OSHKOSH        CLEAR     60  37  42 E5        30.21F
$$

WIZ032>034-041-042-053>061-020200-
SOUTHWEST WISCONSIN

CITY           SKY/WX    TMP DP  RH WIND       PRES   REMARKS
LA CROSSE      CLEAR     67  38  34 SE6       30.16S
SPARTA         CLEAR     63  34  34 SE5       30.19S
VIROQUA        CLEAR     62  37  39 SE6       30.18F
BOSCOBEL       CLEAR     64  41  42 SE3       30.17S
PRAIRIE DU CHI PTCLDY    64  38  38 CALM      30.16S
PLATTEVILLE    CLEAR     63  42  47 E6        30.18R
$$

WIZ056-057-062-063-064-067-068-020200-
SOUTH CENTRAL WISCONSIN

CITY           SKY/WX    TMP DP  RH WIND       PRES   REMARKS
REEDSBURG      CLEAR     62  35  36 SE3       30.19S
BARABOO/DELLS  CLEAR     59  33  37 SE5       30.20S
LONE ROCK        N/A     63  35  35 E7        30.19S
MINERAL POINT  CLEAR     63  34  34 E6        30.19S
MADISON        PTCLDY    59  29  31 E9        30.20S
MIDDLETON      CLEAR     62  28  26 E7        30.20S
WATERTOWN      CLEAR     58  34  40 E3        30.21S
MONROE         CLEAR     59  32  36 E7        30.19S
JANESVILLE     CLEAR     61  32  33 E8        30.20S
$$

WIZ051-052-058>065-066-070>072-020200-
SOUTHEAST WISCONSIN

CITY           SKY/WX    TMP DP  RH WIND       PRES   REMARKS
MILWAUKEE      PTCLDY    50  34  54 N9        30.23S
WAUKESHA       CLEAR     52  32  46 E7        30.23S
MILWAUKEE/TIMM CLEAR     55  30  38 NE7       30.24R
RACINE         CLEAR     49  35  58 N10       30.24F
BURLINGTON     CLEAR     52  34  50 E6        30.22R
KENOSHA        CLEAR     52  35  52 NE7       30.22S
FOND DU LAC    CLEAR     57  35  43 E6        30.22S
SHEBOYGAN      CLEAR     53  37  54 NE9       30.23S
WEST BEND      CLEAR     55  36  47 E7        30.22S
JUNEAU         CLEAR     58  34  41 E7        30.23R
$$

LSZ147-162-020200-
LAKE SUPERIOR

STATION/POSITION TIME  TEMP    WIND        PRES    WAVE
                       AIR SEA DIR/SP/G            HT/PER
                 (UTC) (F)     (DEG/KT/KT) (MB)    (FT/S)
W MID LAKE BUOY  0050   40 37   50/ 10/ 12   N/A     1/ 3
DEVILS ISLAND    0100   45      70/ 12/ 13   N/A
PORT WING        0000   46      40/ 17/ 18   N/A
SAXON HARBOR     0000   48     360/  2/  4   N/A
$$

LMZ867-665-643>646-020200-
LAKE MICHIGAN

STATION/POSITION TIME  TEMP    WIND        PRES    WAVE
                       AIR SEA DIR/SP/G            HT/PER
                 (UTC) (F)     (DEG/KT/KT) (MB)    (FT/S)
CHAMBERS ISLAND  0000   60     350/  2/  3   N/A
N MID LAKE BUOY  0050   47 37  340/  6/  6   N/A     0
NORTHPORT PIER   2300   59      CALM  /  2   N/A
SISTER BAY       0018   61      90/  4/  6   N/A
ALGOMA LAKESHORE 0009           60/ 10/ 13   N/A
KEWAUNEE LAKESHO 0000   53      30/  6/ 10   N/A
SHEBOYGAN LAKESH 0100   50      10/ 10/ 11   N/A
PORT WASHINGTON  0000   52      40/  7/  9   N/A
ATWATER BUOY     0100   47     360/  8/  8   N/A
MILWAUKEE LAKESH 0100   50      20/ 11/ 12   N/A
S MID LAKE BUOY  0050   42 38  350/ 10/ 12   N/A     1/ 3
KENOSHA   LAKESH 0100   49      10/ 13/ 15   N/A
$$

TC  - TEMPERATURE IN CELSIUS
VSB - VISIBILITY IN STATUTE MILES
WCI - WIND CHILL INDEX
HX  - HEAT INDEX



USA.gov is the U.S. government's official web portal to all federal, state and local government web resources and services.